Home > Weather > Shenzhen > Past weeks

Flag for China Past Weather in Shenzhen, Guangdong, China — Yesterday and Last 2 Weeks

Now
81 °F

Rain showers. Passing clouds.


Feels Like: 88 °F
Forecast: 79 / 88 °F
Wind: 13 mph from Southwest

Location: Shenzhen Airport

Current Time: May 28, 2016 at 12:24:10 AM

Latest Report: May 28, 2016 at 12:00 AM


Visibility: 4 mi

Pressure: 29.74 "Hg

Humidity: 94%

Dew Point: 79 °F

Location of ShenzhenLocation

Past Weather in Shenzhen — Graph

°F

Shenzhen Temperature Yesterday

Maximum temperature yesterday: 90 °F (at 1:00 PM)
Minimum temperature yesterday: 81 °F (at 6:00 AM)
Average temperature yesterday: 84 °F

High & Low Weather Summary for the Past Weeks

 TemperatureHumidityPressure
High90 °F (May 26, 2:00 PM)100% (May 20, 2:00 PM)29.98 "Hg (May 20, 2:00 PM)
Low70 °F (May 16, 4:00 AM)43% (May 16, 4:00 PM)29.65 "Hg (May 21, 3:00 PM)
Average81 °F77%29.80 "Hg
* Reported May 12 11:00 PM — May 27 11:00 PM, Shenzhen, Weather by CustomWeather, © 2016

Note: Actual official high and low records may vary slightly from our data, if they occured in-between our weather recording intervals... More about our weather records

Advertising

Shenzhen Weather History for the Previous 24 Hours

Scroll right to see more
 ConditionsComfort  
Time TempWeatherWind HumidityBarometerVisibility
11:00 PM
Fri, May 27
82 °FSprinkles. Partly cloudy.22 mph89%29.71 "HgN/A
10:00 PM82 °FPartly cloudy.22 mph84%29.71 "HgN/A
9:00 PM84 °FPassing clouds.26 mph79%29.68 "HgN/A
8:00 PM82 °FPassing clouds.24 mph84%29.68 "HgN/A
7:00 PM84 °FPartly sunny.22 mph79%29.65 "HgN/A
6:00 PM84 °FPartly sunny.20 mph79%29.65 "HgN/A
5:00 PM86 °FBroken clouds.17 mph70%29.65 "HgN/A
4:00 PM88 °FPartly sunny.20 mph70%29.65 "HgN/A
3:00 PM84 °FScattered clouds.22 mph79%29.65 "HgN/A
2:00 PM82 °FScattered clouds.15 mph84%29.68 "HgN/A
1:00 PM90 °FScattered showers. Scattered clouds.17 mph67%29.68 "HgN/A
12:00 PM88 °FScattered clouds.17 mph70%29.68 "HgN/A
11:00 AM88 °FScattered clouds.15 mph75%29.71 "HgN/A
10:00 AM86 °FScattered clouds.13 mph75%29.71 "HgN/A
9:00 AM84 °FSprinkles. Partly sunny.13 mph79%29.74 "Hg6 mi
8:00 AM84 °FPartly sunny.10 mph79%29.71 "HgN/A
7:00 AM82 °FPartly sunny.10 mph84%29.71 "HgN/A
6:00 AM81 °FPartly sunny.8 mph94%29.71 "HgN/A
5:00 AM82 °FSprinkles. Passing clouds.6 mph84%29.68 "HgN/A
4:00 AM82 °FPassing clouds.8 mph84%29.68 "HgN/A
3:00 AM84 °FPassing clouds.10 mph79%29.71 "HgN/A
2:00 AM84 °FPassing clouds.8 mph74%29.71 "HgN/A
1:00 AM82 °FPassing clouds.8 mph84%29.74 "HgN/A
12:00 AM84 °FPassing clouds.8 mph79%29.74 "HgN/A
Weather by CustomWeather, © 2016

See weather overviewHow to use our weather pages